Weather History for KSAT - May, 2013

Change the Weather History Date:

Wednesday, May 8, 2013

  Actual Average Record
Temperature  
Mean Temperature 74 °F 75 °F  
Max Temperature 85 °F 85 °F 102 °F (1927)
Min Temperature 62 °F 65 °F 47 °F (1982)
Degree Days  
Heating Degree Days 0 0  
Month to date heating degree days 15 0  
Since 1 July heating degree days 1206 1494  
Cooling Degree Days 9 10  
Month to date cooling degree days 24 74  
Year to date cooling degree days 285 333  
Growing Degree Days 23 (Base 50)    
Moisture  
Dew Point 63 °F    
Average Humidity 72    
Maximum Humidity 93    
Minimum Humidity 51    
Precipitation  
Precipitation 0.00 in 0.12 in 2.10 in (1975)
Month to date precipitation 0.65 0.91  
Year to date precipitation 7.30 8.87  
Snow  
Snow 0.00 in - - ()
Month to date snowfall 0.0  
Since 1 July snowfall T  
Snow Depth 0.00 in    
Sea Level Pressure  
Sea Level Pressure 29.93 in    
Wind  
Wind Speed 11 mph (SE)    
Max Wind Speed 21 mph    
Max Gust Speed 25 mph    
Visibility 10 miles    
Events      
T = Trace of Precipitation, MM = Missing Value Source: NWS Daily Summary

Daily Weather History Graph

Daily Weather History Graph

Search for Another Location

Airport or City:

Trip Planner

Search our weather history database for the weather conditions in past years. The results will help you decide how hot, cold, wet, or windy it might be!

Date:

Astronomy

May. 08, 2013 Rise Set
Actual Time 6:45 AM CDT 8:15 PM CDT
Civil Twilight 6:20 AM CDT 8:40 PM CDT
Nautical Twilight 5:49 AM CDT 9:11 PM CDT
Astronomical Twilight 5:17 AM CDT 9:43 PM CDT
Moon 5:49 AM CDT (5/8) 7:18 PM CDT (5/8)
Length of Visible Light 14h 20m
Length of Day
13h 29m
Waning Crescent, 2% of the Moon is Illuminated
May 8
Waning Crescent
May 9
New
May 17
First Quarter
May 24
Full
May 31
Last Quarter

Hourly Weather History & Observations

Time (CDT) Temp. Heat Index Dew Point Humidity Pressure Visibility Wind Dir Wind Speed Gust Speed Precip Events Conditions
12:51 AM 68.0 °F - 57.9 °F 70% 29.95 in 10.0 mi SSE 9.2 mph - N/A   Clear
1:51 AM 66.9 °F - 59.0 °F 76% 29.94 in 10.0 mi SSE 9.2 mph - N/A   Clear
2:51 AM 64.0 °F - 60.1 °F 87% 29.93 in 10.0 mi SE 5.8 mph - N/A   Partly Cloudy
3:18 AM 62.6 °F - 59.0 °F 88% 29.97 in 10.0 mi East 6.9 mph - N/A   Mostly Cloudy
3:51 AM 64.9 °F - 61.0 °F 87% 29.93 in 10.0 mi ESE 6.9 mph - N/A   Mostly Cloudy
4:51 AM 64.9 °F - 62.1 °F 90% 29.93 in 10.0 mi East 5.8 mph - N/A   Overcast
5:11 AM 64.4 °F - 62.6 °F 94% 29.97 in 10.0 mi ESE 6.9 mph - N/A   Overcast
5:51 AM 64.9 °F - 63.0 °F 93% 29.93 in 10.0 mi ESE 5.8 mph - N/A   Overcast
6:51 AM 66.9 °F - 64.0 °F 90% 29.94 in 10.0 mi South 9.2 mph - N/A   Overcast
7:38 AM 66.2 °F - 64.4 °F 94% 30.00 in 10.0 mi SSE 9.2 mph - N/A   Overcast
7:51 AM 66.9 °F - 64.0 °F 90% 29.96 in 10.0 mi SSE 8.1 mph - N/A   Overcast
8:51 AM 69.1 °F - 64.0 °F 84% 29.97 in 10.0 mi SSE 8.1 mph - N/A   Overcast
9:51 AM 71.1 °F - 64.9 °F 81% 29.97 in 10.0 mi South 10.4 mph - N/A   Overcast
10:09 AM 71.6 °F - 64.4 °F 78% 30.02 in 10.0 mi South 13.8 mph - N/A   Overcast
10:51 AM 72.0 °F - 64.0 °F 76% 29.98 in 10.0 mi South 11.5 mph 20.7 mph N/A   Overcast
11:51 AM 75.0 °F - 64.0 °F 69% 29.97 in 10.0 mi SSE 16.1 mph 21.9 mph N/A   Overcast
12:51 PM 77.0 °F - 64.0 °F 64% 29.96 in 10.0 mi SSE 16.1 mph 23.0 mph N/A   Overcast
1:22 PM 78.8 °F - 64.4 °F 61% 29.99 in 10.0 mi South 18.4 mph 25.3 mph N/A   Overcast
1:51 PM 78.1 °F - 64.0 °F 62% 29.94 in 10.0 mi SSE 16.1 mph - N/A   Overcast
2:51 PM 81.0 °F 82.7 °F 64.9 °F 58% 29.92 in 10.0 mi SE 13.8 mph 19.6 mph N/A   Overcast
3:51 PM 82.0 °F 83.4 °F 64.0 °F 54% 29.90 in 10.0 mi SE 11.5 mph 21.9 mph N/A   Mostly Cloudy
4:51 PM 82.9 °F 84.4 °F 64.0 °F 53% 29.88 in 10.0 mi Variable 6.9 mph - N/A   Mostly Cloudy
5:51 PM 82.0 °F 83.0 °F 62.1 °F 51% 29.86 in 10.0 mi SE 9.2 mph 19.6 mph N/A   Mostly Cloudy
6:51 PM 82.0 °F 83.0 °F 62.1 °F 51% 29.84 in 10.0 mi SE 16.1 mph - N/A   Mostly Cloudy
7:51 PM 80.1 °F 81.1 °F 61.0 °F 52% 29.84 in 10.0 mi SE 13.8 mph - N/A   Scattered Clouds
8:51 PM 77.0 °F - 63.0 °F 62% 29.86 in 10.0 mi SE 16.1 mph - N/A   Scattered Clouds
9:51 PM 73.9 °F - 64.0 °F 71% 29.90 in 10.0 mi SE 15.0 mph 21.9 mph N/A   Partly Cloudy
10:34 PM 71.6 °F - 64.4 °F 78% 29.97 in 10.0 mi SSE 11.5 mph - N/A   Mostly Cloudy
10:51 PM 72.0 °F - 64.0 °F 76% 29.93 in 10.0 mi SE 12.7 mph - N/A   Mostly Cloudy
11:51 PM 72.0 °F - 64.9 °F 78% 29.92 in 10.0 mi SE 13.8 mph - N/A   Overcast